Flag Weather past 2 weeks in Wichita, Kansas, U.S.A.

Now
45 °F

Partly sunny.


Feels Like: 36 °F
Forecast: 29 / 47 °F
Wind: 28 mph from Northwest

Location: Wichita Mid-Continent Airport

Current Time: Nov 26, 2014 at 4:13:18 PM

Latest Report: Nov 26, 2014 at 2:53 PM


Visibility: 10 mi

Pressure: 30.23 "Hg

Humidity: 40%

Dew point: 22 °F

Location of WichitaLocation

Historic Weather in Wichita — Graph

°F

Wichita temperature yesterday

Maximum temperature yesterday: 51 °F (at 2:53 PM)
Minimum temperature yesterday: 26 °F (at 7:53 AM)
Average temperature yesterday: 39 °F

Past Weeks' High & Low Weather Summary

 TemperatureHumidityPressure
High62 °F (Nov 22, 2:53 PM)100% (Nov 21, 3:53 PM)30.69 "Hg (Nov 21, 3:53 PM)
Low5 °F (Nov 18, 6:53 AM)22% (Nov 24, 2:53 PM)29.35 "Hg (Nov 23, 12:53 PM)
Average34 °F60%30.17 "Hg
* Reported Nov 11 1:53 PM — Nov 26 1:53 PM, Wichita, Weather by CustomWeather, © 2014

Note: Actual official high and low records may vary slightly from our data, if they occured in-between our weather recording intervals... More about our weather records

Advertising

Wichita weather history for previous 24 hours

 ConditionsComfort  
Time TempWeatherWind HumidityBarometerVisibility
1:53 PM
Nov 26
46 °FPartly sunny.25 mph38%30.20 "Hg10 mi
12:53 PM47 °FPartly sunny.26 mph37%30.18 "Hg10 mi
11:53 AM48 °FScattered clouds.25 mph36%30.16 "Hg10 mi
10:53 AM48 °FScattered clouds.31 mph39%30.15 "Hg10 mi
9:53 AM47 °FPassing clouds.30 mph42%30.13 "Hg10 mi
8:53 AM46 °FPassing clouds.20 mph50%30.10 "Hg10 mi
7:53 AM43 °FPartly sunny.16 mph53%30.07 "Hg10 mi
6:53 AM44 °FPartly cloudy.15 mph55%30.04 "Hg10 mi
5:53 AM44 °FMostly cloudy.9 mph55%30.02 "Hg10 mi
4:53 AM45 °FOvercast.12 mph49%30.00 "Hg10 mi
3:53 AM42 °FMostly cloudy.10 mph57%30.00 "Hg10 mi
2:53 AM40 °FMostly cloudy.5 mph65%29.98 "Hg10 mi
1:53 AM41 °FOvercast.8 mph60%29.96 "Hg10 mi
12:53 AM42 °FPassing clouds.9 mph57%29.95 "Hg10 mi
11:53 PM
Nov 25
42 °FPartly cloudy.13 mph55%29.95 "Hg10 mi
10:53 PM42 °FPartly cloudy.13 mph55%29.97 "Hg10 mi
9:53 PM42 °FPartly cloudy.12 mph55%30.00 "Hg10 mi
8:53 PM43 °FPartly cloudy.13 mph53%30.01 "Hg10 mi
7:53 PM44 °FOvercast.16 mph49%30.04 "Hg10 mi
6:53 PM44 °FMostly cloudy.13 mph53%30.05 "Hg10 mi
5:53 PM43 °FMostly cloudy.8 mph53%30.05 "Hg10 mi
4:53 PM47 °FMore clouds than sun.9 mph44%30.06 "Hg10 mi
Weather by CustomWeather, © 2014

See weather overviewHow to use our weather pages